Year,Month,Day,Hour,Minute,Value (Times are PST for temperature in C)
2018,05,23,00,00,15.30
2018,05,23,00,01,15.30
2018,05,23,00,02,15.30
2018,05,23,00,03,15.30
2018,05,23,00,04,15.30
2018,05,23,00,05,15.30
2018,05,23,00,06,15.30
2018,05,23,00,07,15.30
2018,05,23,00,08,15.30
2018,05,23,00,09,15.30
2018,05,23,00,10,15.30
2018,05,23,00,11,15.30
2018,05,23,00,12,15.30
2018,05,23,00,13,15.20
2018,05,23,00,14,15.20
2018,05,23,00,15,15.20
2018,05,23,00,16,15.20
2018,05,23,00,17,15.10
2018,05,23,00,18,15.10
2018,05,23,00,19,15.10
2018,05,23,00,20,15.00
2018,05,23,00,21,15.00
2018,05,23,00,22,14.90
2018,05,23,00,23,14.90
2018,05,23,00,24,14.90
2018,05,23,00,25,14.90
2018,05,23,00,26,14.90
2018,05,23,00,27,14.90
2018,05,23,00,28,14.90
2018,05,23,00,29,14.90
2018,05,23,00,30,14.90
2018,05,23,00,31,14.90
2018,05,23,00,32,15.00
2018,05,23,00,33,15.00
2018,05,23,00,34,15.00
2018,05,23,00,35,15.10
2018,05,23,00,36,15.10
2018,05,23,00,37,15.10
2018,05,23,00,38,15.10
2018,05,23,00,39,15.10
2018,05,23,00,40,15.10
2018,05,23,00,41,15.10
2018,05,23,00,42,15.00
2018,05,23,00,43,15.00
2018,05,23,00,44,14.90
2018,05,23,00,45,14.90
2018,05,23,00,46,14.80
2018,05,23,00,47,14.80
2018,05,23,00,48,14.80
2018,05,23,00,49,14.70
2018,05,23,00,50,14.70
2018,05,23,00,51,14.70
2018,05,23,00,52,14.70
2018,05,23,00,53,14.70
2018,05,23,00,54,14.60
2018,05,23,00,55,14.60
2018,05,23,00,56,14.60
2018,05,23,00,57,14.60
2018,05,23,00,58,14.60
2018,05,23,00,59,14.60
2018,05,23,01,00,14.60
2018,05,23,01,01,14.60
2018,05,23,01,02,14.60
2018,05,23,01,03,14.70
2018,05,23,01,04,14.70
2018,05,23,01,05,14.70
2018,05,23,01,06,14.70
2018,05,23,01,07,14.70
2018,05,23,01,08,14.70
2018,05,23,01,09,14.60
2018,05,23,01,10,14.60
2018,05,23,01,11,14.60
2018,05,23,01,12,14.60
2018,05,23,01,13,14.60
2018,05,23,01,14,14.50
2018,05,23,01,15,14.50
2018,05,23,01,16,14.50
2018,05,23,01,17,14.40
2018,05,23,01,18,14.40
2018,05,23,01,19,14.40
2018,05,23,01,20,14.40
2018,05,23,01,21,14.40
2018,05,23,01,22,14.30
2018,05,23,01,23,14.30
2018,05,23,01,24,14.30
2018,05,23,01,25,14.30
2018,05,23,01,26,14.30
2018,05,23,01,27,14.30
2018,05,23,01,28,14.30
2018,05,23,01,29,14.30
2018,05,23,01,30,14.20
2018,05,23,01,31,14.20
2018,05,23,01,32,14.20
2018,05,23,01,33,14.20
2018,05,23,01,34,14.20
2018,05,23,01,35,14.20
2018,05,23,01,36,14.20
2018,05,23,01,37,14.20
2018,05,23,01,38,14.10
2018,05,23,01,39,14.10
2018,05,23,01,40,14.10
2018,05,23,01,41,14.10
2018,05,23,01,42,14.10
2018,05,23,01,43,14.10
2018,05,23,01,44,14.10
2018,05,23,01,45,14.10
2018,05,23,01,46,14.10
2018,05,23,01,47,14.10
2018,05,23,01,48,14.10
2018,05,23,01,49,14.10
2018,05,23,01,50,14.10
2018,05,23,01,51,14.10
2018,05,23,01,52,14.10
2018,05,23,01,53,14.10
2018,05,23,01,54,14.10
2018,05,23,01,55,14.10
2018,05,23,01,56,14.00
2018,05,23,01,57,14.00
2018,05,23,01,58,14.00
2018,05,23,01,59,14.00
2018,05,23,02,00,14.00
2018,05,23,02,01,14.00
2018,05,23,02,02,13.90
2018,05,23,02,03,13.90
2018,05,23,02,04,13.90
2018,05,23,02,05,13.90
2018,05,23,02,06,13.90
2018,05,23,02,07,13.90
2018,05,23,02,08,13.90
2018,05,23,02,09,13.90
2018,05,23,02,10,13.90
2018,05,23,02,11,13.90
2018,05,23,02,12,13.90
2018,05,23,02,13,13.90
2018,05,23,02,14,13.90
2018,05,23,02,15,13.90
2018,05,23,02,16,13.90
2018,05,23,02,17,13.80
2018,05,23,02,18,13.80
2018,05,23,02,19,13.80
2018,05,23,02,20,13.80
2018,05,23,02,21,13.80
2018,05,23,02,22,13.80
2018,05,23,02,23,13.80
2018,05,23,02,24,13.70
2018,05,23,02,25,13.70
2018,05,23,02,26,13.70
2018,05,23,02,27,13.70
2018,05,23,02,28,13.70
2018,05,23,02,29,13.70
2018,05,23,02,30,13.70
2018,05,23,02,31,13.70
2018,05,23,02,32,13.60
2018,05,23,02,33,13.60
2018,05,23,02,34,13.60
2018,05,23,02,35,13.60
2018,05,23,02,36,13.60
2018,05,23,02,37,13.60
2018,05,23,02,38,13.60
2018,05,23,02,39,13.60
2018,05,23,02,40,13.60
2018,05,23,02,41,13.60
2018,05,23,02,42,13.60
2018,05,23,02,43,13.60
2018,05,23,02,44,13.50
2018,05,23,02,45,13.50
2018,05,23,02,46,13.50
2018,05,23,02,47,13.50
2018,05,23,02,48,13.50
2018,05,23,02,49,13.50
2018,05,23,02,50,13.40
2018,05,23,02,51,13.40
2018,05,23,02,52,13.40
2018,05,23,02,53,13.40
2018,05,23,02,54,13.40
2018,05,23,02,55,13.30
2018,05,23,02,56,13.30
2018,05,23,02,57,13.30
2018,05,23,02,58,13.30
2018,05,23,02,59,13.30
2018,05,23,03,00,13.30
2018,05,23,03,01,13.30
2018,05,23,03,02,13.30
2018,05,23,03,03,13.30
2018,05,23,03,04,13.30
2018,05,23,03,05,13.30
2018,05,23,03,06,13.30
2018,05,23,03,07,13.30
2018,05,23,03,08,13.30
2018,05,23,03,09,13.30
2018,05,23,03,10,13.30
2018,05,23,03,11,13.30
2018,05,23,03,12,13.30
2018,05,23,03,13,13.30
2018,05,23,03,14,13.30
2018,05,23,03,15,13.30
2018,05,23,03,16,13.30
2018,05,23,03,17,13.30
2018,05,23,03,18,13.30
2018,05,23,03,19,13.30
2018,05,23,03,20,13.30
2018,05,23,03,21,13.30
2018,05,23,03,22,13.30
2018,05,23,03,23,13.30
2018,05,23,03,24,13.30
2018,05,23,03,25,13.30
2018,05,23,03,26,13.20
2018,05,23,03,27,13.20
2018,05,23,03,28,13.20
2018,05,23,03,29,13.20
2018,05,23,03,30,13.20
2018,05,23,03,31,13.10
2018,05,23,03,32,13.10
2018,05,23,03,33,13.10
2018,05,23,03,34,13.10
2018,05,23,03,35,13.00
2018,05,23,03,36,13.00
2018,05,23,03,37,13.00
2018,05,23,03,38,13.00
2018,05,23,03,39,12.90
2018,05,23,03,40,12.90
2018,05,23,03,41,12.90
2018,05,23,03,42,12.90
2018,05,23,03,43,12.80
2018,05,23,03,44,12.80
2018,05,23,03,45,12.80
2018,05,23,03,46,12.80
2018,05,23,03,47,12.80
2018,05,23,03,48,12.80
2018,05,23,03,49,12.80
2018,05,23,03,50,12.70
2018,05,23,03,51,12.70
2018,05,23,03,52,12.70
2018,05,23,03,53,12.70
2018,05,23,03,54,12.70
2018,05,23,03,55,12.70
2018,05,23,03,56,12.70
2018,05,23,03,57,12.70
2018,05,23,03,58,12.70
2018,05,23,03,59,12.60
2018,05,23,04,00,12.60
2018,05,23,04,01,12.60
2018,05,23,04,02,12.60
2018,05,23,04,03,12.60
2018,05,23,04,04,12.50
2018,05,23,04,05,12.50
2018,05,23,04,06,12.50
2018,05,23,04,07,12.40
2018,05,23,04,08,12.40
2018,05,23,04,09,12.40
2018,05,23,04,10,12.40
2018,05,23,04,11,12.40
2018,05,23,04,12,12.40
2018,05,23,04,13,12.40
2018,05,23,04,14,12.40
2018,05,23,04,15,12.30
2018,05,23,04,16,12.30
2018,05,23,04,17,12.30
2018,05,23,04,18,12.30
2018,05,23,04,19,12.30
2018,05,23,04,20,12.30
2018,05,23,04,21,12.40
2018,05,23,04,22,12.40
2018,05,23,04,23,12.40
2018,05,23,04,24,12.40
2018,05,23,04,25,12.40
2018,05,23,04,26,12.40
2018,05,23,04,27,12.40
2018,05,23,04,28,12.40
2018,05,23,04,29,12.40
2018,05,23,04,30,12.40
2018,05,23,04,31,12.40
2018,05,23,04,32,12.40
2018,05,23,04,33,12.40
2018,05,23,04,34,12.40
2018,05,23,04,35,12.40
2018,05,23,04,36,12.40
2018,05,23,04,37,12.40
2018,05,23,04,38,12.40
2018,05,23,04,39,12.40
2018,05,23,04,40,12.40
2018,05,23,04,41,12.40
2018,05,23,04,42,12.30
2018,05,23,04,43,12.30
2018,05,23,04,44,12.30
2018,05,23,04,45,12.30
2018,05,23,04,46,12.30
2018,05,23,04,47,12.20
2018,05,23,04,48,12.20
2018,05,23,04,49,12.20
2018,05,23,04,50,12.20
2018,05,23,04,51,12.20
2018,05,23,04,52,12.10
2018,05,23,04,53,12.10
2018,05,23,04,54,12.10
2018,05,23,04,55,12.10
2018,05,23,04,56,12.10
2018,05,23,04,57,12.10
2018,05,23,04,58,12.10
2018,05,23,04,59,12.10
2018,05,23,05,00,12.10
2018,05,23,05,01,12.20
2018,05,23,05,02,12.20
2018,05,23,05,03,12.20
2018,05,23,05,04,12.20
2018,05,23,05,05,12.20
2018,05,23,05,06,12.20
2018,05,23,05,07,12.20
2018,05,23,05,08,12.20
2018,05,23,05,09,12.20
2018,05,23,05,10,12.20
2018,05,23,05,11,12.20
2018,05,23,05,12,12.20
2018,05,23,05,13,12.20
2018,05,23,05,14,12.20
2018,05,23,05,15,12.20
2018,05,23,05,16,12.20
2018,05,23,05,17,12.20
2018,05,23,05,18,12.20
2018,05,23,05,19,12.20
2018,05,23,05,20,12.20
2018,05,23,05,21,12.20
2018,05,23,05,22,12.20
2018,05,23,05,23,12.20
2018,05,23,05,24,12.20
2018,05,23,05,25,12.20
2018,05,23,05,26,12.10
2018,05,23,05,27,12.10
2018,05,23,05,28,12.10
2018,05,23,05,29,12.10
2018,05,23,05,30,12.10
2018,05,23,05,31,12.00
2018,05,23,05,32,12.00
2018,05,23,05,33,12.00
2018,05,23,05,34,11.90
2018,05,23,05,35,11.90
2018,05,23,05,36,11.90
2018,05,23,05,37,11.90
2018,05,23,05,38,11.80
2018,05,23,05,39,11.80
2018,05,23,05,40,11.80
2018,05,23,05,41,11.80
2018,05,23,05,42,11.80
2018,05,23,05,43,11.80
2018,05,23,05,44,11.80
2018,05,23,05,45,11.80
2018,05,23,05,46,11.80
2018,05,23,05,47,11.80
2018,05,23,05,48,11.80
2018,05,23,05,49,11.80
2018,05,23,05,50,11.80
2018,05,23,05,51,11.80
2018,05,23,05,52,11.90
2018,05,23,05,53,11.90
2018,05,23,05,54,11.90
2018,05,23,05,55,12.00
2018,05,23,05,56,12.00
2018,05,23,05,57,12.00
2018,05,23,05,58,12.10
2018,05,23,05,59,12.10
2018,05,23,06,00,12.10
2018,05,23,06,01,12.10
2018,05,23,06,02,12.10
2018,05,23,06,03,12.10
2018,05,23,06,04,12.10
2018,05,23,06,05,12.10
2018,05,23,06,06,12.10
2018,05,23,06,07,12.10
2018,05,23,06,08,12.10
2018,05,23,06,09,12.20
2018,05,23,06,10,12.20
2018,05,23,06,11,12.20
2018,05,23,06,12,12.20
2018,05,23,06,13,12.20
2018,05,23,06,14,12.20
2018,05,23,06,15,12.20
2018,05,23,06,16,12.20
2018,05,23,06,17,12.20
2018,05,23,06,18,12.20
2018,05,23,06,19,12.20
2018,05,23,06,20,12.20
2018,05,23,06,21,12.20
2018,05,23,06,22,12.20
2018,05,23,06,23,12.20
2018,05,23,06,24,12.20
2018,05,23,06,25,12.20
2018,05,23,06,26,12.30
2018,05,23,06,27,12.30
2018,05,23,06,28,12.30
2018,05,23,06,29,12.30
2018,05,23,06,30,12.40
2018,05,23,06,31,12.40
2018,05,23,06,32,12.40
2018,05,23,06,33,12.40
2018,05,23,06,34,12.40
2018,05,23,06,35,12.40
2018,05,23,06,36,12.40
2018,05,23,06,37,12.50
2018,05,23,06,38,12.50
2018,05,23,06,39,12.60
2018,05,23,06,40,12.60
2018,05,23,06,41,12.60
2018,05,23,06,42,12.60
2018,05,23,06,43,12.70
2018,05,23,06,44,12.70
2018,05,23,06,45,12.70
2018,05,23,06,46,12.80
2018,05,23,06,47,12.80
2018,05,23,06,48,12.80
2018,05,23,06,49,12.80
2018,05,23,06,50,12.90
2018,05,23,06,51,12.90
2018,05,23,06,52,12.90
2018,05,23,06,53,13.00
2018,05,23,06,54,13.00
2018,05,23,06,55,13.10
2018,05,23,06,56,13.10
2018,05,23,06,57,13.20
2018,05,23,06,58,13.20
2018,05,23,06,59,13.30
2018,05,23,07,00,13.30
2018,05,23,07,01,13.30
2018,05,23,07,02,13.40
2018,05,23,07,03,13.40
2018,05,23,07,04,13.50
2018,05,23,07,05,13.50
2018,05,23,07,06,13.60
2018,05,23,07,07,13.60
2018,05,23,07,08,13.70
2018,05,23,07,09,13.80
2018,05,23,07,10,13.80
2018,05,23,07,11,13.90
2018,05,23,07,12,13.90
2018,05,23,07,13,14.00
2018,05,23,07,14,14.00
2018,05,23,07,15,14.10
2018,05,23,07,16,14.20
2018,05,23,07,17,14.20
2018,05,23,07,18,14.20
2018,05,23,07,19,14.30
2018,05,23,07,20,14.30
2018,05,23,07,21,14.30
2018,05,23,07,22,14.40
2018,05,23,07,23,14.40
2018,05,23,07,24,14.50
2018,05,23,07,25,14.50
2018,05,23,07,26,14.60
2018,05,23,07,27,14.60
2018,05,23,07,28,14.60
2018,05,23,07,29,14.70
2018,05,23,07,30,14.70
2018,05,23,07,31,14.80
2018,05,23,07,32,14.80
2018,05,23,07,33,14.80
2018,05,23,07,34,14.90
2018,05,23,07,35,15.00
2018,05,23,07,36,15.10
2018,05,23,07,37,15.20
2018,05,23,07,38,15.30
2018,05,23,07,39,15.40
2018,05,23,07,40,15.50
2018,05,23,07,41,15.50
2018,05,23,07,42,15.60
2018,05,23,07,43,15.60
2018,05,23,07,44,15.70
2018,05,23,07,45,15.70
2018,05,23,07,46,15.70
2018,05,23,07,47,15.70
2018,05,23,07,48,15.80
2018,05,23,07,49,15.80
2018,05,23,07,50,15.80
2018,05,23,07,51,15.90
2018,05,23,07,52,15.90
2018,05,23,07,53,15.90
2018,05,23,07,54,16.00
2018,05,23,07,55,16.00
2018,05,23,07,56,16.10
2018,05,23,07,57,16.10
2018,05,23,07,58,16.20
2018,05,23,07,59,16.20
2018,05,23,08,00,16.30
2018,05,23,08,01,16.30
2018,05,23,08,02,16.30
2018,05,23,08,03,16.40
2018,05,23,08,04,16.40
2018,05,23,08,05,16.50
2018,05,23,08,06,16.60
2018,05,23,08,07,16.60
2018,05,23,08,08,16.70
2018,05,23,08,09,16.80
2018,05,23,08,10,16.80
2018,05,23,08,11,16.90
2018,05,23,08,12,17.00
2018,05,23,08,13,17.00
2018,05,23,08,14,17.10
2018,05,23,08,15,17.10
2018,05,23,08,16,17.20
2018,05,23,08,17,17.30
2018,05,23,08,18,17.30
2018,05,23,08,19,17.40
2018,05,23,08,20,17.50
2018,05,23,08,21,17.50
2018,05,23,08,22,17.60
2018,05,23,08,23,17.70
2018,05,23,08,24,17.70
2018,05,23,08,25,17.80
2018,05,23,08,26,17.90
2018,05,23,08,27,17.90
2018,05,23,08,28,18.00
2018,05,23,08,29,18.00
2018,05,23,08,30,18.10
2018,05,23,08,31,18.10
2018,05,23,08,32,18.20
2018,05,23,08,33,18.20
2018,05,23,08,34,18.30
2018,05,23,08,35,18.40
2018,05,23,08,36,18.40
2018,05,23,08,37,18.50
2018,05,23,08,38,18.60
2018,05,23,08,39,18.70
2018,05,23,08,40,18.80
2018,05,23,08,41,18.90
2018,05,23,08,42,19.00
2018,05,23,08,43,19.10
2018,05,23,08,44,19.20
2018,05,23,08,45,19.30
2018,05,23,08,46,19.40
2018,05,23,08,47,19.50
2018,05,23,08,48,19.60
2018,05,23,08,49,19.70
2018,05,23,08,50,19.70
2018,05,23,08,51,19.80
2018,05,23,08,52,19.80
2018,05,23,08,53,19.90
2018,05,23,08,54,19.90
2018,05,23,08,55,20.00
2018,05,23,08,56,20.00
2018,05,23,08,57,20.00
2018,05,23,08,58,20.10
2018,05,23,08,59,20.10
2018,05,23,09,00,20.20
2018,05,23,09,01,20.30
2018,05,23,09,02,20.30
2018,05,23,09,03,20.30
2018,05,23,09,04,20.40
2018,05,23,09,05,20.40
2018,05,23,09,06,20.40
2018,05,23,09,07,20.50
2018,05,23,09,08,20.50
2018,05,23,09,09,20.60
2018,05,23,09,10,20.60
2018,05,23,09,11,20.60
2018,05,23,09,12,20.60
2018,05,23,09,13,20.70
2018,05,23,09,14,20.70
2018,05,23,09,15,20.70
2018,05,23,09,16,20.80
2018,05,23,09,17,20.80
2018,05,23,09,18,20.80
2018,05,23,09,19,20.80
2018,05,23,09,20,20.80
2018,05,23,09,21,20.70
2018,05,23,09,22,20.70
2018,05,23,09,23,20.70
2018,05,23,09,24,20.70
2018,05,23,09,25,20.70
2018,05,23,09,26,20.80
2018,05,23,09,27,20.70
2018,05,23,09,28,20.70
2018,05,23,09,29,20.70
2018,05,23,09,30,20.70
2018,05,23,09,31,20.70
2018,05,23,09,32,20.70
2018,05,23,09,33,20.80
2018,05,23,09,34,20.80
2018,05,23,09,35,20.80
2018,05,23,09,36,20.80
2018,05,23,09,37,20.80
2018,05,23,09,38,20.80
2018,05,23,09,39,20.80
2018,05,23,09,40,20.80
2018,05,23,09,41,20.80
2018,05,23,09,42,20.80
2018,05,23,09,43,20.80
2018,05,23,09,44,20.80
2018,05,23,09,45,20.80
2018,05,23,09,46,20.90
2018,05,23,09,47,20.90
2018,05,23,09,48,20.90
2018,05,23,09,49,20.90
2018,05,23,09,50,20.90
2018,05,23,09,51,20.90
2018,05,23,09,52,20.80
2018,05,23,09,53,20.80
2018,05,23,09,54,20.80
2018,05,23,09,55,20.80
2018,05,23,09,56,20.90
2018,05,23,09,57,20.90
2018,05,23,09,58,21.00
2018,05,23,09,59,21.00
2018,05,23,10,00,21.10
2018,05,23,10,01,21.10
2018,05,23,10,02,21.20
2018,05,23,10,03,21.20
2018,05,23,10,04,21.20
2018,05,23,10,05,21.30
2018,05,23,10,06,21.30
2018,05,23,10,07,21.30
2018,05,23,10,08,21.30
2018,05,23,10,09,21.30
2018,05,23,10,10,21.30
2018,05,23,10,11,21.30
2018,05,23,10,12,21.30
2018,05,23,10,13,21.30
2018,05,23,10,14,21.20
2018,05,23,10,15,21.30
2018,05,23,10,16,21.20
2018,05,23,10,17,21.20
2018,05,23,10,18,21.30
2018,05,23,10,19,21.30
2018,05,23,10,20,21.30
2018,05,23,10,21,21.40
2018,05,23,10,22,21.40
2018,05,23,10,23,21.50
2018,05,23,10,24,21.60
2018,05,23,10,25,21.60
2018,05,23,10,26,21.70
2018,05,23,10,27,21.80
2018,05,23,10,28,21.80
2018,05,23,10,29,21.90
2018,05,23,10,30,21.90
2018,05,23,10,31,21.90
2018,05,23,10,32,22.00
2018,05,23,10,33,22.00
2018,05,23,10,34,22.10
2018,05,23,10,35,22.10
2018,05,23,10,36,22.10
2018,05,23,10,37,22.10
2018,05,23,10,38,22.20
2018,05,23,10,39,22.20
2018,05,23,10,40,22.10
2018,05,23,10,41,22.10
2018,05,23,10,42,22.00
2018,05,23,10,43,22.10
2018,05,23,10,44,22.10
2018,05,23,10,45,22.10
2018,05,23,10,46,22.10
2018,05,23,10,47,22.20
2018,05,23,10,48,22.20
2018,05,23,10,49,22.20
2018,05,23,10,50,22.20
2018,05,23,10,51,22.30
2018,05,23,10,52,22.30
2018,05,23,10,53,22.40
2018,05,23,10,54,22.40
2018,05,23,10,55,22.50
2018,05,23,10,56,22.60
2018,05,23,10,57,22.60
2018,05,23,10,58,22.60
2018,05,23,10,59,22.60
2018,05,23,11,00,22.60
2018,05,23,11,01,22.60
2018,05,23,11,02,22.60
2018,05,23,11,03,22.60
2018,05,23,11,04,22.60
2018,05,23,11,05,22.60
2018,05,23,11,06,22.60
2018,05,23,11,07,22.60
2018,05,23,11,08,22.60
2018,05,23,11,09,22.50
2018,05,23,11,10,22.50
2018,05,23,11,11,22.50
2018,05,23,11,12,22.40
2018,05,23,11,13,22.40
2018,05,23,11,14,22.50
2018,05,23,11,15,22.50
2018,05,23,11,16,22.50
2018,05,23,11,17,22.50
2018,05,23,11,18,22.50
2018,05,23,11,19,22.50
2018,05,23,11,20,22.50
2018,05,23,11,21,22.50
2018,05,23,11,22,22.50
2018,05,23,11,23,22.50
2018,05,23,11,24,22.60
2018,05,23,11,25,22.60
2018,05,23,11,26,22.70
2018,05,23,11,27,22.70
2018,05,23,11,28,22.70
2018,05,23,11,29,22.80
2018,05,23,11,30,22.80
2018,05,23,11,31,22.80
2018,05,23,11,32,22.80
2018,05,23,11,33,22.80
2018,05,23,11,34,22.80
2018,05,23,11,35,22.80
2018,05,23,11,36,22.80
2018,05,23,11,37,22.70
2018,05,23,11,38,22.70
2018,05,23,11,39,22.80
2018,05,23,11,40,22.80
2018,05,23,11,41,22.80
2018,05,23,11,42,22.80
2018,05,23,11,43,22.80
2018,05,23,11,44,22.80
2018,05,23,11,45,22.70
2018,05,23,11,46,22.70
2018,05,23,11,47,22.70
2018,05,23,11,48,22.70
2018,05,23,11,49,22.70
2018,05,23,11,50,22.70
2018,05,23,11,51,22.70
2018,05,23,11,52,22.70
2018,05,23,11,53,22.70
2018,05,23,11,54,22.80
2018,05,23,11,55,22.80
2018,05,23,11,56,22.80
2018,05,23,11,57,22.80
2018,05,23,11,58,22.70
2018,05,23,11,59,22.70
2018,05,23,12,00,22.70
2018,05,23,12,01,22.70
2018,05,23,12,02,22.70
2018,05,23,12,03,22.70
2018,05,23,12,04,22.70
2018,05,23,12,05,22.70
2018,05,23,12,06,22.70
2018,05,23,12,07,22.70
2018,05,23,12,08,22.80
2018,05,23,12,09,22.70
2018,05,23,12,10,22.70
2018,05,23,12,11,22.70
2018,05,23,12,12,22.60
2018,05,23,12,13,22.60
2018,05,23,12,14,22.60
2018,05,23,12,15,22.50
2018,05,23,12,16,22.50
2018,05,23,12,17,22.60
2018,05,23,12,18,22.50
2018,05,23,12,19,22.50
2018,05,23,12,20,22.50
2018,05,23,12,21,22.50
2018,05,23,12,22,22.50
2018,05,23,12,23,22.50
2018,05,23,12,24,22.50
2018,05,23,12,25,22.50
2018,05,23,12,26,22.50
2018,05,23,12,27,22.50
2018,05,23,12,28,22.50
2018,05,23,12,29,22.40
2018,05,23,12,30,22.40
2018,05,23,12,31,22.40
2018,05,23,12,32,22.30
2018,05,23,12,33,22.30
2018,05,23,12,34,22.30
2018,05,23,12,35,22.30
2018,05,23,12,36,22.20
2018,05,23,12,37,22.30
2018,05,23,12,38,22.20
2018,05,23,12,39,22.20
2018,05,23,12,40,22.20
2018,05,23,12,41,22.20
2018,05,23,12,42,22.10
2018,05,23,12,43,22.10
2018,05,23,12,44,22.10
2018,05,23,12,45,22.10
2018,05,23,12,46,22.10
2018,05,23,12,47,22.10
2018,05,23,12,48,22.10
2018,05,23,12,49,22.10
2018,05,23,12,50,22.10
2018,05,23,12,51,22.10
2018,05,23,12,52,22.20
2018,05,23,12,53,22.20
2018,05,23,12,54,22.30
2018,05,23,12,55,22.30
2018,05,23,12,56,22.30
2018,05,23,12,57,22.30
2018,05,23,12,58,22.30
2018,05,23,12,59,22.40
2018,05,23,13,00,22.40
2018,05,23,13,01,22.40
2018,05,23,13,02,22.40
2018,05,23,13,03,22.40
2018,05,23,13,04,22.40
2018,05,23,13,05,22.40
2018,05,23,13,06,22.40
2018,05,23,13,07,22.50
2018,05,23,13,08,22.50
2018,05,23,13,09,22.50
2018,05,23,13,10,22.40
2018,05,23,13,11,22.40
2018,05,23,13,12,22.40
2018,05,23,13,13,22.40
2018,05,23,13,14,22.40
2018,05,23,13,15,22.40
2018,05,23,13,16,22.40
2018,05,23,13,17,22.50
2018,05,23,13,18,22.50
2018,05,23,13,19,22.50
2018,05,23,13,20,22.50
2018,05,23,13,21,22.40
2018,05,23,13,22,22.40
2018,05,23,13,23,22.40
2018,05,23,13,24,22.40
2018,05,23,13,25,22.40
2018,05,23,13,26,22.50
2018,05,23,13,27,22.60
2018,05,23,13,28,22.60
2018,05,23,13,29,22.60
2018,05,23,13,30,22.70
2018,05,23,13,31,22.60
2018,05,23,13,32,22.60
2018,05,23,13,33,22.60
2018,05,23,13,34,22.60
2018,05,23,13,35,22.60
2018,05,23,13,36,22.60
2018,05,23,13,37,22.60
2018,05,23,13,38,22.60
2018,05,23,13,39,22.60
2018,05,23,13,40,22.60
2018,05,23,13,41,22.60
2018,05,23,13,42,22.50
2018,05,23,13,43,22.50
2018,05,23,13,44,22.40
2018,05,23,13,45,22.40
2018,05,23,13,46,22.40
2018,05,23,13,47,22.30
2018,05,23,13,48,22.30
2018,05,23,13,49,22.30
2018,05,23,13,50,22.30
2018,05,23,13,51,22.30
2018,05,23,13,52,22.30
2018,05,23,13,53,22.30
2018,05,23,13,54,22.30
2018,05,23,13,55,22.30
2018,05,23,13,56,22.40
2018,05,23,13,57,22.40
2018,05,23,13,58,22.40
2018,05,23,13,59,22.40
2018,05,23,14,00,22.40
2018,05,23,14,01,22.40
2018,05,23,14,02,22.50
2018,05,23,14,03,22.60
2018,05,23,14,04,22.60
2018,05,23,14,05,22.70
2018,05,23,14,06,22.70
2018,05,23,14,07,22.70
2018,05,23,14,08,22.70
2018,05,23,14,09,22.70
2018,05,23,14,10,22.70
2018,05,23,14,11,22.70
2018,05,23,14,12,22.60
2018,05,23,14,13,22.50
2018,05,23,14,14,22.50
2018,05,23,14,15,22.40
2018,05,23,14,16,22.40
2018,05,23,14,17,22.30
2018,05,23,14,18,22.30
2018,05,23,14,19,22.30
2018,05,23,14,20,22.40
2018,05,23,14,21,22.40
2018,05,23,14,22,22.50
2018,05,23,14,23,22.50
2018,05,23,14,24,22.60
2018,05,23,14,25,22.70
2018,05,23,14,26,22.70
2018,05,23,14,27,22.80
2018,05,23,14,28,22.80
2018,05,23,14,29,22.90
2018,05,23,14,30,22.90
2018,05,23,14,31,22.90
2018,05,23,14,32,23.00
2018,05,23,14,33,23.00
2018,05,23,14,34,23.00
2018,05,23,14,35,23.00
2018,05,23,14,36,23.00
2018,05,23,14,37,23.10
2018,05,23,14,38,23.10
2018,05,23,14,39,23.00
2018,05,23,14,40,23.10
2018,05,23,14,41,23.10
2018,05,23,14,42,23.10
2018,05,23,14,43,23.10
2018,05,23,14,44,23.10
2018,05,23,14,45,23.10
2018,05,23,14,46,23.20
2018,05,23,14,47,23.20
2018,05,23,14,48,23.20
2018,05,23,14,49,23.20
2018,05,23,14,50,23.20
2018,05,23,14,51,23.10
2018,05,23,14,52,23.20
2018,05,23,14,53,23.10
2018,05,23,14,54,23.10
2018,05,23,14,55,23.00
2018,05,23,14,56,22.90
2018,05,23,14,57,22.90
2018,05,23,14,58,22.90
2018,05,23,14,59,22.90
2018,05,23,15,00,22.90
2018,05,23,15,01,22.90
2018,05,23,15,02,22.90
2018,05,23,15,03,22.90
2018,05,23,15,04,22.80
2018,05,23,15,05,22.80
2018,05,23,15,06,22.80
2018,05,23,15,07,22.80
2018,05,23,15,08,22.90
2018,05,23,15,09,22.90
2018,05,23,15,10,22.90
2018,05,23,15,11,22.80
2018,05,23,15,12,22.80
2018,05,23,15,13,22.80
2018,05,23,15,14,22.80
2018,05,23,15,15,22.80
2018,05,23,15,16,22.80
2018,05,23,15,17,22.80
2018,05,23,15,18,22.80
2018,05,23,15,19,22.80
2018,05,23,15,20,22.80
2018,05,23,15,21,22.80
2018,05,23,15,22,22.80
2018,05,23,15,23,22.80
2018,05,23,15,24,22.70
2018,05,23,15,25,22.70
2018,05,23,15,26,22.70
2018,05,23,15,27,22.70
2018,05,23,15,28,22.70
2018,05,23,15,29,22.70
2018,05,23,15,30,22.70
2018,05,23,15,31,22.80
2018,05,23,15,32,22.80
2018,05,23,15,33,22.80
2018,05,23,15,34,22.90
2018,05,23,15,35,22.90
2018,05,23,15,36,22.90
2018,05,23,15,37,22.90
2018,05,23,15,38,22.90
2018,05,23,15,39,23.00
2018,05,23,15,40,23.00
2018,05,23,15,41,23.00
2018,05,23,15,42,23.00
2018,05,23,15,43,23.00
2018,05,23,15,44,23.10
2018,05,23,15,45,23.10
2018,05,23,15,46,23.20
2018,05,23,15,47,23.20
2018,05,23,15,48,23.30
2018,05,23,15,49,23.30
2018,05,23,15,50,23.30
2018,05,23,15,51,23.40
2018,05,23,15,52,23.40
2018,05,23,15,53,23.50
2018,05,23,15,54,23.60
2018,05,23,15,55,23.60
2018,05,23,15,56,23.70
2018,05,23,15,57,23.70
2018,05,23,15,58,23.80
2018,05,23,15,59,23.80
2018,05,23,16,00,23.80
2018,05,23,16,01,23.80
2018,05,23,16,02,23.80
2018,05,23,16,03,23.90
2018,05,23,16,04,23.90
2018,05,23,16,05,23.90
2018,05,23,16,06,23.90
2018,05,23,16,07,23.90
2018,05,23,16,08,23.90
2018,05,23,16,09,23.90
2018,05,23,16,10,23.90
2018,05,23,16,11,24.00
2018,05,23,16,12,24.00
2018,05,23,16,13,24.10
2018,05,23,16,14,24.10
2018,05,23,16,15,24.10
2018,05,23,16,16,24.10
2018,05,23,16,17,24.10
2018,05,23,16,18,24.10
2018,05,23,16,19,24.10
2018,05,23,16,20,24.10
2018,05,23,16,21,24.10
2018,05,23,16,22,24.10
2018,05,23,16,23,24.10
2018,05,23,16,24,24.10
2018,05,23,16,25,24.10
2018,05,23,16,26,24.10
2018,05,23,16,27,24.10
2018,05,23,16,28,24.10
2018,05,23,16,29,24.10
2018,05,23,16,30,24.10
2018,05,23,16,31,24.10
2018,05,23,16,32,24.20
2018,05,23,16,33,24.20
2018,05,23,16,34,24.20
2018,05,23,16,35,24.20
2018,05,23,16,36,24.20
2018,05,23,16,37,24.20
2018,05,23,16,38,24.30
2018,05,23,16,39,24.30
2018,05,23,16,40,24.30
2018,05,23,16,41,24.30
2018,05,23,16,42,24.30
2018,05,23,16,43,24.30
2018,05,23,16,44,24.30
2018,05,23,16,45,24.30
2018,05,23,16,46,24.40
2018,05,23,16,47,24.40
2018,05,23,16,48,24.40
2018,05,23,16,49,24.40
2018,05,23,16,50,24.40
2018,05,23,16,51,24.30
2018,05,23,16,52,24.30
2018,05,23,16,53,24.30
2018,05,23,16,54,24.30
2018,05,23,16,55,24.30
2018,05,23,16,56,24.30
2018,05,23,16,57,24.30
2018,05,23,16,58,24.30
2018,05,23,16,59,24.30
2018,05,23,17,00,24.30
2018,05,23,17,01,24.20
2018,05,23,17,02,24.20
2018,05,23,17,03,24.30
2018,05,23,17,04,24.30
2018,05,23,17,05,24.30
2018,05,23,17,06,24.30
2018,05,23,17,07,24.30
2018,05,23,17,08,24.20
2018,05,23,17,09,24.20
2018,05,23,17,10,24.20
2018,05,23,17,11,24.20
2018,05,23,17,12,24.20
2018,05,23,17,13,24.20
2018,05,23,17,14,24.10
2018,05,23,17,15,24.10
2018,05,23,17,16,24.10
2018,05,23,17,17,24.20
2018,05,23,17,18,24.20
2018,05,23,17,19,24.20